• In Deutschland
  • Länderverzeichnis
  • Für 7 Tage
  • Wassertemperatur
  • Satellitenkarten
  • Wetterkarte
  • Widgets
  • user-avatar
    Anmelden

    Stündliche Wetter Werne an der Lippe

    Heute, 21 Februar, Mittwoch

    Zeit Temperatur Niederschläge Wind Luftdruck Luftfeuchtigkeit
    00:00 -2°C° 0 mm 2 m/S 761 mmHg 80%
    01:00 -2°C° 0 mm 2 m/S 761 mmHg 81%
    02:00 -2°C° 0 mm 2 m/S 761 mmHg 81%
    03:00 -3°C° 0 mm 2 m/S 762 mmHg 81%
    04:00 -3°C° 0 mm 2 m/S 762 mmHg 82%
    05:00 -3°C° 0 mm 2 m/S 762 mmHg 82%
    06:00 -3°C° 0 mm 2 m/S 762 mmHg 82%
    07:00 -3°C° 0 mm 2 m/S 762 mmHg 84%
    08:00 -2°C° 0 mm 2 m/S 762 mmHg 78%
    09:00 -1°C° 0 mm 2 m/S 762 mmHg 73%
    10:00 0°C° 0 mm 3 m/S 762 mmHg 67%
    11:00 +1°C° 0 mm 3 m/S 762 mmHg 63%
    12:00 +2°C° 0 mm 3 m/S 762 mmHg 58%
    13:00 +3°C° 0 mm 3 m/S 762 mmHg 53%
    14:00 +3°C° 0 mm 3 m/S 762 mmHg 53%
    15:00 +3°C° 0 mm 3 m/S 762 mmHg 54%
    16:00 +3°C° 0 mm 4 m/S 761 mmHg 54%
    17:00 +2°C° 0 mm 3 m/S 762 mmHg 60%
    18:00 +1°C° 0 mm 3 m/S 762 mmHg 65%
    19:00 -1°C° 0 mm 3 m/S 762 mmHg 71%
    20:00 -1°C° 0 mm 3 m/S 762 mmHg 71%
    21:00 -1°C° 0 mm 3 m/S 762 mmHg 72%
    22:00 -2°C° 0 mm 3 m/S 763 mmHg 73%
    23:00 -2°C° 0 mm 3 m/S 763 mmHg 73%

    Morgen, 22 Februar, Donnerstag

    Zeit Temperatur Niederschläge Wind Luftdruck Luftfeuchtigkeit
    00:00 -2°C° 0 mm 3 m/S 763 mmHg 73%
    01:00 -2°C° 0 mm 3 m/S 763 mmHg 73%
    02:00 -2°C° 0 mm 3 m/S 763 mmHg 73%
    03:00 -2°C° 0 mm 3 m/S 763 mmHg 73%
    04:00 -2°C° 0 mm 3 m/S 762 mmHg 73%
    05:00 -2°C° 0 mm 3 m/S 762 mmHg 72%
    06:00 -4°C° 0 mm 3 m/S 762 mmHg 72%
    07:00 -4°C° 0 mm 3 m/S 762 mmHg 72%
    08:00 -2°C° 0 mm 3 m/S 763 mmHg 66%
    09:00 -1°C° 0 mm 3 m/S 763 mmHg 60%
    10:00 -1°C° 0 mm 4 m/S 763 mmHg 55%
    11:00 0°C° 0 mm 4 m/S 763 mmHg 52%
    12:00 +1°C° 0 mm 4 m/S 762 mmHg 49%
    13:00 +3°C° 0 mm 4 m/S 762 mmHg 46%
    14:00 +3°C° 0 mm 4 m/S 762 mmHg 47%
    15:00 +3°C° 0 mm 4 m/S 761 mmHg 47%
    16:00 +3°C° 0 mm 4 m/S 761 mmHg 48%
    17:00 0°C° 0 mm 4 m/S 761 mmHg 54%
    18:00 -1°C° 0 mm 4 m/S 761 mmHg 61%
    19:00 -1°C° 0 mm 3 m/S 762 mmHg 67%
    20:00 -1°C° 0 mm 3 m/S 762 mmHg 70%
    21:00 -2°C° 0 mm 3 m/S 762 mmHg 72%
    22:00 -2°C° 0 mm 3 m/S 762 mmHg 75%
    23:00 -2°C° 0 mm 2 m/S 762 mmHg 76%

    übermorgen, 23 Februar, Freitag

    Zeit Temperatur Niederschläge Wind Luftdruck Luftfeuchtigkeit
    00:00 -2°C° 0 mm 2 m/S 762 mmHg 77%
    01:00 -2°C° 0 mm 2 m/S 762 mmHg 78%
    02:00 -3°C° 0 mm 2 m/S 762 mmHg 78%
    03:00 -3°C° 0 mm 2 m/S 762 mmHg 78%
    04:00 -3°C° 0 mm 2 m/S 761 mmHg 77%
    05:00 -4°C° 0 mm 3 m/S 762 mmHg 75%
    06:00 -4°C° 0 mm 3 m/S 762 mmHg 72%
    07:00 -4°C° 0 mm 3 m/S 762 mmHg 69%
    08:00 -3°C° 0 mm 4 m/S 762 mmHg 61%
    09:00 -3°C° 0 mm 4 m/S 762 mmHg 54%
    10:00 -2°C° 0 mm 5 m/S 762 mmHg 46%
    11:00 -1°C° 0 mm 5 m/S 762 mmHg 41%
    12:00 0°C° 0 mm 5 m/S 762 mmHg 37%
    13:00 0°C° 0 mm 5 m/S 761 mmHg 33%
    14:00 +1°C° 0 mm 5 m/S 761 mmHg 31%
    15:00 +1°C° 0 mm 5 m/S 761 mmHg 30%
    16:00 +1°C° 0 mm 5 m/S 761 mmHg 29%
    17:00 0°C° 0 mm 5 m/S 761 mmHg 32%
    18:00 -1°C° 0 mm 5 m/S 761 mmHg 34%
    19:00 -3°C° 0 mm 4 m/S 761 mmHg 37%
    20:00 -4°C° 0 mm 5 m/S 762 mmHg 38%
    21:00 -4°C° 0 mm 5 m/S 762 mmHg 39%
    22:00 -4°C° 0 mm 5 m/S 762 mmHg 40%
    23:00 -4°C° 0 mm 5 m/S 762 mmHg 40%

    24 Februar, Samstag

    Zeit Temperatur Niederschläge Wind Luftdruck Luftfeuchtigkeit
    00:00 -5°C° 0 mm 5 m/S 762 mmHg 40%
    01:00 -5°C° 0 mm 5 m/S 762 mmHg 40%
    02:00 -5°C° 0 mm 5 m/S 762 mmHg 39%
    03:00 -5°C° 0 mm 5 m/S 762 mmHg 38%
    04:00 -5°C° 0 mm 6 m/S 762 mmHg 36%
    05:00 -5°C° 0 mm 6 m/S 762 mmHg 36%
    06:00 -4°C° 0 mm 6 m/S 762 mmHg 35%
    07:00 -4°C° 0 mm 6 m/S 762 mmHg 35%
    08:00 -4°C° 0 mm 6 m/S 762 mmHg 35%
    09:00 -3°C° 0 mm 7 m/S 762 mmHg 35%
    10:00 -2°C° 0 mm 7 m/S 763 mmHg 35%
    11:00 -1°C° 0 mm 7 m/S 762 mmHg 38%
    12:00 0°C° 0 mm 7 m/S 762 mmHg 40%
    13:00 +2°C° 0 mm 7 m/S 762 mmHg 43%
    14:00 +2°C° 0 mm 7 m/S 762 mmHg 45%
    15:00 0°C° 0 mm 7 m/S 762 mmHg 46%
    16:00 0°C° 0 mm 7 m/S 762 mmHg 47%
    17:00 -1°C° 0 mm 7 m/S 762 mmHg 46%
    18:00 -2°C° 0 mm 7 m/S 763 mmHg 45%
    19:00 -3°C° 0 mm 7 m/S 763 mmHg 44%
    20:00 -3°C° 0 mm 7 m/S 763 mmHg 42%
    21:00 -4°C° 0 mm 7 m/S 764 mmHg 41%
    22:00 -4°C° 0 mm 7 m/S 764 mmHg 40%
    23:00 -6°C° 0 mm 7 m/S 764 mmHg 38%

    25 Februar, Sonntag

    Zeit Temperatur Niederschläge Wind Luftdruck Luftfeuchtigkeit
    00:00 -5°C° 0 mm 6 m/S 764 mmHg 37%
    01:00 -5°C° 0 mm 6 m/S 765 mmHg 35%
    02:00 -6°C° 0 mm 6 m/S 765 mmHg 36%
    03:00 -6°C° 0 mm 6 m/S 765 mmHg 38%
    04:00 -6°C° 0 mm 6 m/S 765 mmHg 39%
    05:00 -6°C° 0 mm 6 m/S 765 mmHg 41%
    06:00 -8°C° 0 mm 6 m/S 765 mmHg 42%
    07:00 -8°C° 0 mm 6 m/S 765 mmHg 43%
    08:00 -8°C° 0 mm 6 m/S 766 mmHg 40%
    09:00 -6°C° 0 mm 6 m/S 766 mmHg 36%
    10:00 -6°C° 0 mm 6 m/S 766 mmHg 33%
    11:00 -5°C° 0 mm 6 m/S 766 mmHg 30%
    12:00 -4°C° 0 mm 6 m/S 766 mmHg 26%
    13:00 -4°C° 0 mm 6 m/S 766 mmHg 23%
    14:00 -4°C° 0 mm 6 m/S 766 mmHg 23%
    15:00 -4°C° 0 mm 6 m/S 766 mmHg 23%
    16:00 -4°C° 0 mm 6 m/S 766 mmHg 23%
    17:00 -4°C° 0 mm 5 m/S 766 mmHg 27%
    18:00 -5°C° 0 mm 5 m/S 766 mmHg 31%
    19:00 -5°C° 0 mm 4 m/S 767 mmHg 36%
    20:00 -5°C° 0 mm 4 m/S 767 mmHg 38%
    21:00 -5°C° 0 mm 4 m/S 767 mmHg 41%
    22:00 -5°C° 0 mm 4 m/S 767 mmHg 44%
    23:00 -7°C° 0 mm 4 m/S 767 mmHg 45%

    26 Februar, Montag

    Zeit Temperatur Niederschläge Wind Luftdruck Luftfeuchtigkeit
    00:00 -7°C° 0 mm 4 m/S 767 mmHg 45%
    01:00 -7°C° 0 mm 4 m/S 767 mmHg 45%
    02:00 -7°C° 0 mm 4 m/S 767 mmHg 45%
    03:00 -8°C° 0 mm 4 m/S 767 mmHg 45%
    04:00 -7°C° 0 mm 3 m/S 767 mmHg 46%
    05:00 -7°C° 0 mm 3 m/S 767 mmHg 47%
    06:00 -7°C° 0 mm 3 m/S 767 mmHg 48%
    07:00 -7°C° 0 mm 3 m/S 767 mmHg 50%
    08:00 -8°C° 0 mm 4 m/S 767 mmHg 48%
    09:00 -7°C° 0 mm 4 m/S 767 mmHg 47%
    10:00 -5°C° 0 mm 4 m/S 767 mmHg 45%
    11:00 -5°C° 0 mm 4 m/S 767 mmHg 43%
    12:00 -4°C° 0 mm 4 m/S 766 mmHg 40%
    13:00 -3°C° 0 mm 4 m/S 766 mmHg 38%
    14:00 -3°C° 0 mm 4 m/S 765 mmHg 37%
    15:00 -3°C° 0 mm 4 m/S 765 mmHg 37%
    16:00 -3°C° 0 mm 4 m/S 765 mmHg 37%
    17:00 -4°C° 0 mm 4 m/S 765 mmHg 40%
    18:00 -5°C° 0 mm 3 m/S 764 mmHg 43%
    19:00 -5°C° 0 mm 3 m/S 764 mmHg 47%
    20:00 -5°C° 0 mm 3 m/S 764 mmHg 49%
    21:00 -6°C° 0 mm 3 m/S 765 mmHg 51%
    22:00 -6°C° 0 mm 3 m/S 765 mmHg 53%
    23:00 -5°C° 0 mm 2 m/S 764 mmHg 55%
    Mehr zeigen